Tracking 17938 objects as of 24-February-2017
HD Live streaming from Space Station
objects crossing your sky now

ITAMSAT

Track ITAMSAT now!
10-day predictions
ITAMSAT is classified as:


NORAD ID: 22826
Int'l Code: 1993-061D
Perigee: 793.2 km
Apogee: 804.6 km
Inclination: 98.8 °
Period: 100.7 minutes
Semi major axis: 7169 km
RCS: 0.1649 m2 (medium)
Launch date: September 26, 1993
Source: Portugal (POR)
Launch site: FRENCH GUIANA (FRGUI)
Uplink (MHz): 145.875-145.950
Downlink (MHz): 435.822/435.867
Beacon (MHz): 435.791
Mode: 1200bps JAS
Call sign: ITMSAT-11 -12
Status: Active


ITAMSAT is an Italian microsatellite that was launched along with SPOT 3. It is intended to receive and retransmit amateur radio communications. Initial orbital parameters are period 100.9 min, apogee 823 km, perigee 799 km, and inclination 98.6 deg.
Your satellite tracking list
Your tracking list is empty





NASA's NSSDC Master Catalog

Two Line Element Set (TLE):
1 22826U 93061D   17054.82816262  .00000013  00000-0  22585-4 0  9991
2 22826  98.7916  19.2027 0007977 296.8882  63.1484 14.30314388221372
Source of the keplerian elements: AFSPC